Location: Caltech
(34.1382°N, 118.1253°W)
Time: 19:02:40
(UTC-07:00)

ADEOS II - Visible Passes

Search period start: 28 June 2016 00:00
Search period end: 08 July 2016 00:00
Orbit: 800 x 801 km, 98.3° (Epoch: 28 June)

Date Brightness Start Highest point End Pass type
(mag) Time Alt. Az. Time Alt. Az. Time Alt. Az.
28 Jun 4.5 04:16:24 10° NE 04:20:06 19° E 04:23:45 10° SE visible
30 Jun 2.8 05:02:12 10° NNE 05:07:23 57° E 05:12:33 10° S visible
01 Jul 3.8 04:36:20 10° NE 04:40:58 31° E 04:45:35 10° SSE visible
02 Jul 4.6 04:11:07 10° NE 04:14:27 17° E 04:17:47 10° SE visible
04 Jul 3.0 04:56:40 10° NNE 05:01:47 51° E 05:06:52 10° S visible
05 Jul 4.0 04:30:53 10° NE 04:35:21 28° E 04:39:47 10° SSE visible
06 Jul 4.7 04:05:52 10° ENE 04:08:49 15° E 04:11:44 10° SE visible
07 Jul 2.2 05:17:15 10° NNE 05:22:32 83° ESE 05:27:47 10° SSW visible
